DW2113 Weather Reports


Display with metric or nautical units.
time (UTC)temp
F
wind
direction
speed
MPH
gust
MPH
rain 1hr
in
rain 24hr
in
rain mn
in
humidity
%
barometer
mb
20260509223840 85 360 11.0 16.0 0.00 0.00 0.00 43
20260509223358 85 360 10.0 15.0 0.00 0.00 0.00 42
20260509222836 86 360 9.0 15.0 0.00 0.00 0.00 43
20260509222330 86 360 7.0 17.0 0.00 0.00 0.00 43
20260509221908 86 360 9.0 17.0 0.00 0.00 0.00 43
20260509221344 86 360 11.0 16.0 0.00 0.00 0.00 43
20260509220842 86 360 6.0 15.0 0.00 0.00 0.00 43
20260509220339 86 360 10.0 15.0 0.00 0.00 0.00 43
20260509215858 86 360 8.0 14.0 0.00 0.00 0.00 43
20260509215332 86 360 6.0 14.0 0.00 0.00 0.00 44
20260509214829 86 360 6.0 14.0 0.00 0.00 0.00 44
20260509214407 85 360 9.0 17.0 0.00 0.00 0.00 45
20260509213844 85 360 10.0 17.0 0.00 0.00 0.00 44
20260509213341 86 360 9.0 15.0 0.00 0.00 0.00 44
20260509212839 86 360 6.0 15.0 0.00 0.00 0.00 45
20260509212354 85 360 6.0 14.0 0.00 0.00 0.00 43
20260509211831 85 360 5.0 14.0 0.00 0.00 0.00 44
20260509211332 85 360 8.0 14.0 0.00 0.00 0.00 44
20260509210830 85 360 6.0 12.0 0.00 0.00 0.00 44
20260509210346 86 360 7.0 12.0 0.00 0.00 0.00 44
20260509205846 86 360 8.0 12.0 0.00 0.00 0.00 43
20260509205342 86 360 5.0 8.0 0.00 0.00 0.00 43
20260509204839 85 360 4.0 12.0 0.00 0.00 0.00 44
20260509204336 86 360 8.0 14.0 0.00 0.00 0.00 44
20260509203833 86 360 5.0 15.0 0.00 0.00 0.00 45
20260509203330 86 360 6.0 15.0 0.00 0.00 0.00 44
20260509202827 86 360 5.0 13.0 0.00 0.00 0.00 44
20260509202344 86 360 7.0 13.0 0.00 0.00 0.00 44
20260509201902 85 360 7.0 15.0 0.00 0.00 0.00 45
20260509201339 85 360 9.0 15.0 0.00 0.00 0.00 44
20260509200856 85 360 7.0 11.0 0.00 0.00 0.00 45
20260509200352 85 360 6.0 13.0 0.00 0.00 0.00 45
20260509195830 85 360 9.0 13.0 0.00 0.00 0.00 44
20260509195406 85 360 6.0 13.0 0.00 0.00 0.00 45
20260509194843 84 360 5.0 13.0 0.00 0.00 0.00 46
20260509194340 84 360 6.0 13.0 0.00 0.00 0.00 46
20260509193838 84 360 9.0 13.0 0.00 0.00 0.00 45
20260509193338 85 360 5.0 11.0 0.00 0.00 0.00 46
20260509192856 85 360 6.0 11.0 0.00 0.00 0.00 46
20260509192331 85 360 3.0 10.0 0.00 0.00 0.00 46
20260509191849 84 360 6.0 11.0 0.00 0.00 0.00 46
20260509191346 84 360 3.0 11.0 0.00 0.00 0.00 46
20260509190843 83 360 4.0 11.0 0.00 0.00 0.00 48
20260509190402 83 360 5.0 13.0 0.00 0.00 0.00 48
20260509185838 84 360 7.0 13.0 0.00 0.00 0.00 48
20260509185333 83 360 5.0 11.0 0.00 0.00 0.00 47
20260509184831 83 360 4.0 13.0 0.00 0.00 0.00 48
20260509184328 83 360 6.0 13.0 0.00 0.00 0.00 48
20260509183846 83 360 7.0 12.0 0.00 0.00 0.00 48
20260509183343 83 360 5.0 12.0 0.00 0.00 0.00 48
20260509182840 83 360 5.0 13.0 0.00 0.00 0.00 48
20260509182337 82 360 7.0 13.0 0.00 0.00 0.00 48
20260509181854 82 360 6.0 14.0 0.00 0.00 0.00 48
20260509181331 82 360 4.0 11.0 0.00 0.00 0.00 48
20260509180849 82 360 5.0 11.0 0.00 0.00 0.00 47
20260509180329 82 360 6.0 10.0 0.00 0.00 0.00 47
20260509175849 82 360 4.0 9.0 0.00 0.00 0.00 48
20260509175405 82 360 5.0 9.0 0.00 0.00 0.00 48
20260509174841 82 360 5.0 8.0 0.00 0.00 0.00 49
20260509174335 81 360 3.0 9.0 0.00 0.00 0.00 49
20260509173833 81 360 5.0 9.0 0.00 0.00 0.00 51
20260509173331 81 360 5.0 9.0 0.00 0.00 0.00 49
20260509172829 81 360 3.0 8.0 0.00 0.00 0.00 50
20260509172327 81 360 4.0 9.0 0.00 0.00 0.00 48
20260509171845 81 360 4.0 9.0 0.00 0.00 0.00 48
20260509171342 80 360 3.0 11.0 0.00 0.00 0.00 50
20260509170859 80 360 4.0 11.0 0.00 0.00 0.00 52
20260509170348 80 360 3.0 7.0 0.00 0.00 0.00 52
20260509165845 79 360 4.0 8.0 0.00 0.00 0.00 52
20260509165342 79 360 4.0 10.0 0.00 0.00 0.00 54
20260509164900 78 360 6.0 12.0 0.00 0.00 0.00 55
20260509164336 78 360 6.0 10.0 0.00 0.00 0.00 57
20260509163834 78 360 5.0 12.0 0.00 0.00 0.00 57
20260509163331 77 360 5.0 12.0 0.00 0.00 0.00 61
20260509162832 77 360 5.0 12.0 0.00 0.00 0.00 61
20260509162329 76 360 6.0 12.0 0.00 0.00 0.00 62
20260509161846 76 360 5.0 11.0 0.00 0.00 0.00 62
20260509161404 76 360 6.0 11.0 0.00 0.00 0.00 63
20260509160840 75 360 5.0 12.0 0.00 0.00 0.00 65
20260509160337 75 360 7.0 12.0 0.00 0.00 0.00 66
20260509155836 74 360 5.0 10.0 0.00 0.00 0.00 68
20260509155332 74 360 4.0 10.0 0.00 0.00 0.00 68
20260509154829 73 360 6.0 10.0 0.00 0.00 0.00 69
20260509154408 73 360 6.0 10.0 0.00 0.00 0.00 69
20260509153843 72 360 5.0 13.0 0.00 0.00 0.00 70
20260509153340 72 360 5.0 10.0 0.00 0.00 0.00 70
20260509152838 71 360 5.0 9.0 0.00 0.00 0.00 71
20260509152335 71 360 5.0 11.0 0.00 0.00 0.00 72
20260509151834 70 360 5.0 11.0 0.00 0.00 0.00 72
20260509151331 70 360 7.0 10.0 0.00 0.00 0.00 72
20260509150848 69 360 4.0 9.0 0.00 0.00 0.00 73
20260509150329 69 360 5.0 8.0 0.00 0.00 0.00 73
20260509145904 68 360 2.0 7.0 0.00 0.00 0.00 73
20260509145342 68 360 3.0 7.0 0.00 0.00 0.00 73
20260509144840 68 360 4.0 7.0 0.00 0.00 0.00 73
20260509144337 68 360 4.0 8.0 0.00 0.00 0.00 73
20260509143835 68 360 3.0 6.0 0.00 0.00 0.00 73
20260509143354 69 360 4.0 6.0 0.00 0.00 0.00 73
20260509142850 69 360 3.0 6.0 0.00 0.00 0.00 72
20260509142346 68 360 1.0 6.0 0.00 0.00 0.00 72
20260509141843 69 360 3.0 4.0 0.00 0.00 0.00 72
20260509141401 69 360 2.0 6.0 0.00 0.00 0.00 71
20260509140838 70 360 4.0 6.0 0.00 0.00 0.00 68
20260509140335 69 360 2.0 4.0 0.00 0.00 0.00 59
20260509135833 68 360 0.0 2.0 0.00 0.00 0.00 54
20260509135329 68 360 0.0 3.0 0.00 0.00 0.00 51
20260509134906 68 360 2.0 5.0 0.00 0.00 0.00 50
20260509134343 67 360 3.0 5.0 0.00 0.00 0.00 50
20260509133840 67 360 1.0 3.0 0.00 0.00 0.00 50
20260509133337 66 52 1.0 4.0 0.00 0.00 0.00 51
20260509132836 66 360 1.0 4.0 0.00 0.00 0.00 51
20260509132332 65 360 2.0 3.0 0.00 0.00 0.00 51
20260509131833 64 360 0.0 3.0 0.00 0.00 0.00 51
20260509131352 63 360 1.0 3.0 0.00 0.00 0.00 52
20260509130848 61 360 1.0 3.0 0.00 0.00 0.00 52
20260509130347 60 360 0.0 3.0 0.00 0.00 0.00 52
20260509125844 60 360 1.0 4.0 0.00 0.00 0.00 52
20260509125340 59 360 1.0 4.0 0.00 0.00 0.00 52
20260509124837 58 360 2.0 4.0 0.00 0.00 0.00 52
20260509124334 57 360 0.0 3.0 0.00 0.00 0.00 52
20260509123852 57 360 2.0 4.0 0.00 0.00 0.00 52
20260509123350 57 360 3.0 4.0 0.00 0.00 0.00 52
20260509122848 57 360 0.0 4.0 0.00 0.00 0.00 52
20260509122344 56 360 3.0 5.0 0.00 0.00 0.00 53
20260509121903 55 360 3.0 5.0 0.00 0.00 0.00 53
20260509121359 54 360 2.0 4.0 0.00 0.00 0.00 53
20260509120834 54 360 3.0 4.0 0.00 0.00 0.00 53
20260509120333 54 360 3.0 4.0 0.00 0.00 0.00 53
20260509115832 54 360 3.0 4.0 0.00 0.00 0.00 53
20260509115329 53 360 3.0 4.0 0.00 0.00 0.00 53
20260509114907 53 360 2.0 3.0 0.00 0.00 0.00 53
20260509114344 53 360 1.0 5.0 0.00 0.00 0.00 53
20260509113841 54 360 2.0 5.0 0.00 0.00 0.00 53
20260509113338 53 360 2.0 6.0 0.00 0.00 0.00 53
20260509112840 53 360 3.0 6.0 0.00 0.00 0.00 53
20260509112336 53 360 3.0 5.0 0.00 0.00 0.00 53
20260509111834 53 360 4.0 5.0 0.00 0.00 0.00 53
20260509111333 53 360 3.0 4.0 0.00 0.00 0.00 53
20260509110849 54 360 3.0 4.0 0.00 0.00 0.00 53
20260509110406 54 360 1.0 3.0 0.00 0.00 0.00 53
20260509105843 54 360 2.0 3.0 0.00 0.00 0.00 53
20260509105339 54 360 2.0 5.0 0.00 0.00 0.00 53
20260509104837 54 360 3.0 6.0 0.00 0.00 0.00 53
20260509104334 54 360 4.0 6.0 0.00 0.00 0.00 53
20260509103832 54 360 4.0 5.0 0.00 0.00 0.00 53
20260509103328 54 360 4.0 5.0 0.00 0.00 0.00 53
20260509102846 55 360 4.0 5.0 0.00 0.00 0.00 53
20260509102343 56 360 3.0 3.0 0.00 0.00 0.00 53
20260509101841 56 360 1.0 2.0 0.00 0.00 0.00 53
20260509101338 57 360 2.0 2.0 0.00 0.00 0.00 53
20260509100840 57 360 1.0 2.0 0.00 0.00 0.00 53
20260509100338 56 360 0.0 1.0 0.00 0.00 0.00 53
20260509095834 56 360 1.0 2.0 0.00 0.00 0.00 53
20260509095330 56 360 1.0 2.0 0.00 0.00 0.00 53
20260509094828 57 360 1.0 2.0 0.00 0.00 0.00 53
20260509094345 57 360 2.0 2.0 0.00 0.00 0.00 53
20260509093842 57 360 1.0 2.0 0.00 0.00 0.00 53
20260509093340 57 360 0.0 3.0 0.00 0.00 0.00 53
20260509092838 57 360 1.0 4.0 0.00 0.00 0.00 53
20260509092354 57 360 3.0 4.0 0.00 0.00 0.00 53
20260509091831 57 360 3.0 4.0 0.00 0.00 0.00 53
20260509091348 57 360 2.0 4.0 0.00 0.00 0.00 53
20260509090906 57 360 2.0 4.0 0.00 0.00 0.00 53
20260509090342 58 360 2.0 4.0 0.00 0.00 0.00 53
20260509085840 58 360 1.0 3.0 0.00 0.00 0.00 53
20260509085336 58 360 1.0 3.0 0.00 0.00 0.00 53
20260509084833 58 360 2.0 3.0 0.00 0.00 0.00 53
20260509084334 59 360 1.0 3.0 0.00 0.00 0.00 53
20260509083833 58 360 2.0 3.0 0.00 0.00 0.00 53
20260509083330 58 360 1.0 3.0 0.00 0.00 0.00 53
20260509082848 59 360 2.0 3.0 0.00 0.00 0.00 53
20260509082343 59 360 0.0 1.0 0.00 0.00 0.00 53
20260509081840 59 360 0.0 2.0 0.00 0.00 0.00 53
20260509081337 59 360 1.0 2.0 0.00 0.00 0.00 53
20260509080834 59 360 1.0 3.0 0.00 0.00 0.00 53
20260509080331 60 360 2.0 3.0 0.00 0.00 0.00 53
20260509075849 60 360 2.0 2.0 0.00 0.00 0.00 53
20260509075407 60 360 1.0 4.0 0.00 0.00 0.00 53
20260509074904 60 360 3.0 4.0 0.00 0.00 0.00 53
20260509074339 60 360 3.0 4.0 0.00 0.00 0.00 53
20260509073836 60 360 4.0 4.0 0.00 0.00 0.00 53
20260509073334 60 360 3.0 4.0 0.00 0.00 0.00 53
20260509072831 60 360 2.0 4.0 0.00 0.00 0.00 54
20260509072328 60 360 3.0 3.0 0.00 0.00 0.00 54
20260509071846 61 360 3.0 4.0 0.00 0.00 0.00 54
20260509071346 61 360 2.0 4.0 0.00 0.00 0.00 54
20260509070843 61 360 0.0 4.0 0.00 0.00 0.00 54
20260509070340 61 360 2.0 4.0 0.00 0.00 0.00 54
20260509065859 61 360 3.0 5.0 0.00 0.00 0.00 55
20260509065335 60 360 3.0 7.0 0.00 0.00 0.00 55
20260509064833 60 360 5.0 7.0 0.00 0.00 0.00 56
20260509064329 60 360 5.0 7.0 0.00 0.00 0.00 56
20260509063907 60 360 5.0 6.0 0.00 0.00 0.00 57
20260509063343 60 360 4.0 5.0 0.00 0.00 0.00 57
20260509062842 61 360 4.0 4.0 0.00 0.00 0.00 57
20260509062338 61 360 3.0 4.0 0.00 0.00 0.00 57
20260509061836 61 360 3.0 4.0 0.00 0.00 0.00 57
20260509061334 62 360 3.0 4.0 0.00 0.00 0.00 57
20260509060831 62 360 2.0 3.0 0.00 0.00 0.00 57
20260509060410 62 360 2.0 3.0 0.00 0.00 0.00 58
20260509055846 62 360 0.0 3.0 0.00 0.00 0.00 58
20260509055342 62 360 0.0 5.0 0.00 0.00 0.00 58
20260509054840 62 360 1.0 5.0 0.00 0.00 0.00 59
20260509054341 63 360 1.0 4.0 0.00 0.00 0.00 59
20260509053839 63 360 3.0 4.0 0.00 0.00 0.00 59
20260509053335 63 360 2.0 4.0 0.00 0.00 0.00 59
20260509052834 63 360 3.0 4.0 0.00 0.00 0.00 60
20260509052350 64 360 1.0 6.0 0.00 0.00 0.00 59
20260509051848 64 360 5.0 6.0 0.00 0.00 0.00 60
20260509051345 64 360 0.0 8.0 0.00 0.00 0.00 60
20260509050843 64 360 5.0 9.0 0.00 0.00 0.00 61
20260509050333 64 360 4.0 10.0 0.00 0.00 0.00 62
20260509045831 64 360 6.0 10.0 0.00 0.00 0.00 64
20260509045408 64 360 6.0 9.0 0.00 0.00 0.00 65
20260509044843 64 360 3.0 6.0 0.00 0.00 0.00 65
20260509044340 65 360 4.0 6.0 0.00 0.00 0.00 65
20260509043838 65 360 2.0 5.0 0.00 0.00 0.00 65
20260509043335 65 360 3.0 4.0 0.00 0.00 0.00 65
20260509042854 65 360 2.0 4.0 0.00 0.00 0.00 66
20260509042351 65 360 3.0 5.0 0.00 0.00 0.00 66
20260509041907 65 360 4.0 5.0 0.00 0.00 0.00 67
20260509041344 66 360 4.0 7.0 0.00 0.00 0.00 67
20260509040841 66 360 4.0 9.0 0.00 0.00 0.00 67
20260509040338 66 360 7.0 9.0 0.00 0.00 0.00 68
20260509035841 65 360 7.0 9.0 0.00 0.00 0.00 69
20260509035338 65 360 5.0 7.0 0.00 0.00 0.00 71
20260509034834 65 360 6.0 9.0 0.00 0.00 0.00 71
20260509034332 65 360 8.0 9.0 0.00 0.00 0.00 72
20260509033829 65 360 7.0 8.0 0.00 0.00 0.00 72
20260509033347 65 360 6.0 7.0 0.00 0.00 0.00 73
20260509032845 65 360 5.0 6.0 0.00 0.00 0.00 73
20260509032343 65 360 5.0 6.0 0.00 0.00 0.00 73
20260509031840 66 360 5.0 6.0 0.00 0.00 0.00 73
20260509031337 66 360 5.0 6.0 0.00 0.00 0.00 73
20260509030834 66 360 4.0 6.0 0.00 0.00 0.00 74
20260509030333 66 360 4.0 6.0 0.00 0.00 0.00 73
20260509025832 66 360 5.0 7.0 0.00 0.00 0.00 73
20260509025328 67 360 5.0 8.0 0.00 0.00 0.00 73
20260509024830 67 360 5.0 8.0 0.00 0.00 0.00 73
20260509024350 67 360 6.0 8.0 0.00 0.00 0.00 73
20260509023846 68 360 6.0 8.0 0.00 0.00 0.00 73
20260509023343 68 360 6.0 8.0 0.00 0.00 0.00 72
20260509022842 68 360 5.0 7.0 0.00 0.00 0.00 72
20260509022338 68 360 6.0 7.0 0.00 0.00 0.00 71
20260509021835 69 360 5.0 9.0 0.00 0.00 0.00 71
20260509021333 69 360 6.0 10.0 0.00 0.00 0.00 71
20260509020829 69 360 8.0 10.0 0.00 0.00 0.00 71
20260509020407 69 360 6.0 8.0 0.00 0.00 0.00 71
20260509015844 70 360 5.0 8.0 0.00 0.00 0.00 70
20260509015340 70 360 6.0 8.0 0.00 0.00 0.00 69
20260509014858 70 360 6.0 8.0 0.00 0.00 0.00 68
20260509014355 71 360 6.0 8.0 0.00 0.00 0.00 67
20260509013832 71 360 5.0 6.0 0.00 0.00 0.00 65
20260509013328 72 360 4.0 7.0 0.00 0.00 0.00 64
20260509012847 73 360 4.0 9.0 0.00 0.00 0.00 63
20260509012404 73 360 5.0 10.0 0.00 0.00 0.00 63
20260509011841 73 360 7.0 10.0 0.00 0.00 0.00 62
20260509011338 74 360 6.0 14.0 0.00 0.00 0.00 59
20260509010835 74 360 10.0 16.0 0.00 0.00 0.00 58
20260509010337 75 360 13.0 16.0 0.00 0.00 0.00 57
20260509005835 76 360 8.0 16.0 0.00 0.00 0.00 54
20260509005330 79 360 11.0 16.0 0.00 0.00 0.00 51
20260509004848 80 360 8.0 14.0 0.00 0.00 0.00 49
20260509004346 81 44 9.0 16.0 0.00 0.00 0.00 46
20260509003844 82 360 9.0 19.0 0.00 0.00 0.00 43
20260509003342 84 33 8.0 26.0 0.00 0.00 0.00 40
20260509002840 84 360 12.0 21.0 0.00 0.00 0.00 37
20260509002336 84 360 9.0 17.0 0.00 0.00 0.00 37
20260509001833 84 360 9.0 19.0 0.00 0.00 0.00 37
20260509001331 85 360 10.0 19.0 0.00 0.00 0.00 37
20260509000848 85 360 11.0 19.0 0.00 0.00 0.00 37
20260509000342 84 360 9.0 14.0 0.00 0.00 0.00 39
20260508235840 84 360 10.0 18.0 0.00 0.00 0.00 39
20260508235338 84 360 9.0 18.0 0.00 0.00 0.00 39
20260508234839 84 10 10.0 15.0 0.00 0.00 0.00 40
20260508234336 83 360 6.0 12.0 0.00 0.00 0.00 43
20260508233835 83 360 8.0 14.0 0.00 0.00 0.00 43
20260508233332 83 360 9.0 15.0 0.00 0.00 0.00 42
20260508232830 82 21 12.0 15.0 0.00 0.00 0.00 43
20260508232406 81 360 8.0 13.0 0.00 0.00 0.00 47
20260508231903 80 360 9.0 15.0 0.00 0.00 0.00 46
20260508231339 80 360 10.0 17.0 0.00 0.00 0.00 46
20260508230836 81 360 11.0 16.0 0.00 0.00 0.00 45
20260508230334 82 360 10.0 17.0 0.00 0.00 0.00 42
20260508225831 86 360 9.0 17.0 0.00 0.00 0.00 37
20260508225348 89 360 4.0 9.0 0.00 0.00 0.00 37
20260508224845 89 360 3.0 8.0 0.00 0.00 0.00 38
20260508224402 88 360 4.0 9.0 0.00 0.00 0.00 38